Washington, VA

3:07 PM EDT on May 29, 2017 (GMT -0400)
Ronald Reagan Washington National

Weather History for KDCA - May, 2013

Change the Weather History Date:

Friday, May 24, 2013

  Actual Average Record
Temperature  
Mean Temperature 58 °F 68 °F  
Max Temperature 67 °F 78 °F 92 °F (1964)
Min Temperature 49 °F 59 °F 41 °F (1905)
Degree Days  
Heating Degree Days 7 2  
Month to date heating degree days 71 72  
Since 1 July heating degree days 3753 4018  
Cooling Degree Days 0 5  
Month to date cooling degree days 89 68  
Year to date cooling degree days 130 94  
Growing Degree Days 6 (Base 50)    
Moisture  
Dew Point 47 °F    
Average Humidity 65    
Maximum Humidity 87    
Minimum Humidity 43    
Precipitation  
Precipitation 0.01 in 0.13 in 1.97 in (1897)
Month to date precipitation 1.48 3.07  
Year to date precipitation 11.24 15.04  
Snow  
Snow 0.00 in 0.00 in - ()
Month to date snowfall 0.0 0.0  
Since 1 July snowfall 3.1 15.4  
Snow Depth 0.00 in    
Sea Level Pressure  
Sea Level Pressure 29.94 in    
Wind  
Wind Speed 16 mph (NW)    
Max Wind Speed 29 mph    
Max Gust Speed 38 mph    
Visibility 10 miles    
Events Rain    
T = Trace of Precipitation, MM = Missing Value Source: NWS Daily Summary

Daily Weather History Graph

Daily Weather History Graph

Search for Another Location

Airport or City:

Trip Planner

Search our weather history database for the weather conditions in past years. The results will help you decide how hot, cold, wet, or windy it might be!

Date:

Astronomy

May. 24, 2013 Rise Set
Actual Time 5:48 AM EDT 8:21 PM EDT
Civil Twilight 5:18 AM EDT 8:52 PM EDT
Nautical Twilight 4:39 AM EDT 9:30 PM EDT
Astronomical Twilight 3:57 AM EDT 10:13 PM EDT
Moon 8:01 PM EDT (5/24) 5:18 AM EDT (5/24)
Length of Visible Light 15h 34m
Length of Day
14h 32m
Full, 100% of the Moon is Illuminated
May 24
Full
May 25
Full
May 31
Last Quarter
Jun 8
New
Jun 16
First Quarter

Hourly Weather History & Observations

Time (EDT) Temp. Dew Point Humidity Pressure Visibility Wind Dir Wind Speed Gust Speed Precip Events Conditions
12:52 AM 66.9 °F 62.1 °F 84% 29.77 in 10.0 mi NW 8.1 mph - 0.01 in   Overcast
1:52 AM 66.0 °F 61.0 °F 84% 29.75 in 10.0 mi North 5.8 mph - N/A   Overcast
2:52 AM 64.9 °F 61.0 °F 87% 29.76 in 10.0 mi SW 5.8 mph - N/A   Mostly Cloudy
3:52 AM 64.9 °F 61.0 °F 87% 29.76 in 10.0 mi SW 8.1 mph - N/A   Mostly Cloudy
4:52 AM 64.0 °F 61.0 °F 90% 29.77 in 10.0 mi South 5.8 mph - N/A   Overcast
5:52 AM 64.9 °F 61.0 °F 87% 29.80 in 10.0 mi WSW 4.6 mph - N/A   Overcast
6:14 AM 66.2 °F 60.8 °F 83% 29.80 in 10.0 mi West 5.8 mph - N/A   Overcast
6:52 AM 66.0 °F 59.0 °F 78% 29.81 in 10.0 mi NW 17.3 mph 23.0 mph 0.00 in Rain Light Rain
7:15 AM 64.4 °F 59.0 °F 83% 29.82 in 5.0 mi NW 17.3 mph 24.2 mph 0.00 in Rain Light Rain
7:25 AM 64.4 °F 57.2 °F 77% 29.84 in 10.0 mi NW 24.2 mph 35.7 mph 0.01 in   Overcast
7:41 AM 60.8 °F 53.6 °F 77% 29.85 in 10.0 mi NW 25.3 mph 38.0 mph 0.01 in   Overcast
7:52 AM 60.1 °F 52.0 °F 75% 29.87 in 10.0 mi NW 21.9 mph 31.1 mph 0.01 in   Overcast
8:52 AM 57.9 °F 48.0 °F 70% 29.90 in 10.0 mi NW 18.4 mph 29.9 mph 0.00 in Rain Light Rain
9:52 AM 57.0 °F 46.0 °F 67% 29.92 in 10.0 mi NNW 20.7 mph 27.6 mph 0.00 in Rain Light Rain
10:17 AM 57.2 °F 46.4 °F 67% 29.93 in 10.0 mi NW 19.6 mph 31.1 mph 0.00 in Rain Light Rain
10:52 AM 55.0 °F 46.0 °F 72% 29.95 in 10.0 mi NW 18.4 mph 31.1 mph 0.00 in Rain Light Rain
11:52 AM 57.9 °F 44.1 °F 60% 29.96 in 10.0 mi NNW 21.9 mph 28.8 mph 0.00 in   Overcast
12:52 PM 57.0 °F 42.1 °F 57% 29.98 in 10.0 mi NW 24.2 mph 33.4 mph N/A   Overcast
1:52 PM 57.9 °F 39.9 °F 51% 29.99 in 10.0 mi NW 18.4 mph 36.8 mph N/A   Overcast
2:52 PM 57.0 °F 39.0 °F 51% 30.01 in 10.0 mi NNW 20.7 mph 28.8 mph N/A   Overcast
3:52 PM 59.0 °F 39.9 °F 49% 30.01 in 10.0 mi NNW 23.0 mph 32.2 mph N/A   Overcast
4:52 PM 57.9 °F 39.0 °F 49% 30.02 in 10.0 mi NW 17.3 mph 25.3 mph N/A   Overcast
5:52 PM 57.0 °F 37.9 °F 49% 30.04 in 10.0 mi NNW 16.1 mph 27.6 mph N/A   Overcast
6:52 PM 57.0 °F 37.0 °F 47% 30.07 in 10.0 mi NW 23.0 mph 31.1 mph N/A   Overcast
7:52 PM 55.9 °F 33.1 °F 42% 30.09 in 10.0 mi NW 17.3 mph 38.0 mph N/A   Overcast
8:52 PM 55.0 °F 33.1 °F 43% 30.12 in 10.0 mi NW 19.6 mph 31.1 mph N/A   Mostly Cloudy
9:52 PM 54.0 °F 34.0 °F 47% 30.14 in 10.0 mi NW 13.8 mph 21.9 mph N/A   Mostly Cloudy
10:52 PM 52.0 °F 32.0 °F 47% 30.16 in 10.0 mi NW 18.4 mph 24.2 mph N/A   Mostly Cloudy
11:52 PM 51.1 °F 32.0 °F 48% 30.17 in 10.0 mi NW 16.1 mph - N/A   Scattered Clouds